GW1815 Weather Reports


Display with metric or nautical units.
time (UTC)temp
F
wind
direction
speed
MPH
gust
MPH
rain 1hr
in
rain 24hr
in
rain mn
in
humidity
%
barometer
mb
20260902191540 94 159 4.0 12.0 0.00 0.00 0.00 58 1012.6
20260902190040 94 317 1.0 8.0 0.00 0.00 0.00 58 1012.8
20260902184539 94 180 2.0 12.0 0.00 0.00 0.00 56 1012.8
20260902183041 94 150 3.0 9.0 0.00 0.00 0.00 65 1012.7
20260902181543 93 180 3.0 11.0 0.00 0.00 0.00 64 1013.0
20260902180052 92 181 4.0 8.0 0.00 0.00 0.00 69 1013.1
20260902174539 91 197 3.0 8.0 0.00 0.02 0.00 65 1013.0
20260902173041 90 198 4.0 11.0 0.00 0.02 0.00 67 1012.9
20260902171549 90 151 4.0 16.0 0.00 0.02 0.00 69 1013.0
20260902170039 89 121 3.0 12.0 0.00 0.02 0.00 70 1013.1
20260902164536 88 160 3.0 11.0 0.00 0.02 0.00 69 1013.4
20260902163039 87 0 1.0 7.0 0.00 0.02 0.00 70 1013.6
20260902161546 87 86 1.0 10.0 0.00 0.02 0.00 69 1013.7
20260902160037 87 160 3.0 7.0 0.00 0.02 0.00 73 1013.7
20260902154535 87 0 1.0 4.0 0.00 0.02 0.00 73 1013.8
20260902153038 86 192 1.0 4.0 0.00 0.02 0.00 71 1013.9
20260902151539 84 258 1.0 5.0 0.00 0.02 0.00 74 1013.8
20260902150040 83 333 0.0 3.0 0.00 0.02 0.00 73 1013.8
20260902144536 83 229 1.0 4.0 0.00 0.02 0.00 76 1014.0
20260902143039 82 310 1.0 5.0 0.00 0.02 0.00 76 1014.1
20260902141553 80 355 1.0 5.0 0.00 0.02 0.00 79 1014.2
20260902140039 80 360 0.0 5.0 0.00 0.02 0.00 79 1014.1
20260902134540 78 360 3.0 8.0 0.00 0.02 0.00 83 1014.4
20260902133035 76 300 3.0 8.0 0.00 0.02 0.00 87 1014.6
20260902131539 75 315 0.0 4.0 0.00 0.02 0.00 87 1014.5
20260902130042 75 210 3.0 9.0 0.00 0.02 0.00 89 1014.8
20260902124535 73 315 4.0 14.0 0.00 0.02 0.00 91 1014.8
20260902123036 72 261 0.0 3.0 0.00 0.02 0.00 93 1014.1
20260902121537 72 0 1.0 3.0 0.00 0.02 0.00 93 1014.0
20260902120036 71 321 2.0 5.0 0.00 0.02 0.00 93 1013.8
20260902114604 71 211 0.0 4.0 0.00 0.02 0.00 93 1013.5
20260902113047 71 183 1.0 5.0 0.00 0.02 0.00 93 1013.5
20260902111537 71 0 1.0 4.0 0.00 0.02 0.00 92 1013.5
20260902110041 71 0 0.0 5.0 0.00 0.02 0.00 92 1013.5
20260902104541 71 0 0.0 3.0 0.00 0.02 0.00 92 1013.5
20260902103035 72 0 1.0 7.0 0.00 0.02 0.00 92 1013.6
20260902101535 72 225 0.0 5.0 0.00 0.02 0.00 93 1013.5
20260902100040 72 0 1.0 6.0 0.00 0.02 0.00 92 1013.7
20260902094540 72 209 1.0 4.0 0.00 0.02 0.00 92 1013.7
20260902093037 72 172 1.0 5.0 0.00 0.02 0.00 92 1013.5
20260902091546 72 0 2.0 5.0 0.00 0.02 0.00 92 1013.7
20260902090050 72 0 1.0 5.0 0.00 0.02 0.00 92 1013.7
20260902084538 72 244 1.0 5.0 0.00 0.02 0.00 92 1013.6
20260902083033 72 0 0.0 3.0 0.00 0.02 0.00 92 1013.5
20260902081543 73 0 0.0 3.0 0.00 0.02 0.00 92 1013.5
20260902080038 73 218 1.0 3.0 0.00 0.02 0.00 92 1013.6
20260902074545 73 0 0.0 3.0 0.00 0.02 0.00 92 1013.6
20260902073038 73 0 0.0 4.0 0.00 0.02 0.00 91 1013.5
20260902071533 73 212 0.0 4.0 0.00 0.02 0.00 91 1013.6
20260902070041 73 224 1.0 5.0 0.00 0.02 0.00 90 1013.4
20260902064539 73 0 0.0 2.0 0.00 0.02 0.00 89 1013.5
20260902063035 74 244 0.0 1.0 0.00 0.02 0.00 89 1013.7
20260902061547 74 0 0.0 1.0 0.00 0.02 0.00 89 1013.8
20260902060051 75 0 0.0 2.0 0.00 0.02 0.00 89 1013.6
20260902054540 75 0 0.0 1.0 0.00 0.02 0.00 89 1013.6
20260902053048 75 0 0.0 0.0 0.00 0.02 0.00 89 1013.5
20260902051540 76 0 0.0 0.0 0.00 0.02 0.00 89 1013.6
20260902050033 76 0 0.0 1.0 0.00 0.02 0.00 89 1013.5
20260902044541 77 244 1.0 4.0 0.00 0.02 0.02 89 1013.5
20260902043038 77 286 1.0 5.0 0.00 0.02 0.02 88 1013.4
20260902041540 77 0 2.0 4.0 0.00 0.02 0.02 87 1013.4
20260902040040 78 0 0.0 5.0 0.00 0.02 0.02 87 1013.4
20260902034542 78 0 0.0 3.0 0.00 0.02 0.02 87 1013.4
20260902033035 78 0 0.0 5.0 0.00 0.02 0.02 87 1013.4
20260902031534 79 233 1.0 5.0 0.00 0.02 0.02 87 1013.5
20260902030037 79 190 1.0 5.0 0.00 0.02 0.02 87 1013.7
20260902024539 79 211 1.0 6.0 0.00 0.02 0.02 88 1013.7
20260902023043 79 242 1.0 6.0 0.00 0.02 0.02 87 1013.6
20260902021537 80 227 1.0 4.0 0.00 0.02 0.02 87 1013.5
20260902020052 80 296 0.0 2.0 0.00 0.02 0.02 86 1013.5
20260902014539 80 296 0.0 1.0 0.00 0.02 0.02 86 1013.4
20260902013040 81 0 0.0 0.0 0.00 0.02 0.02 85 1013.3
20260902011540 81 0 0.0 3.0 0.00 0.02 0.02 84 1013.0
20260902010036 82 0 0.0 2.0 0.00 0.02 0.02 84 1012.7
20260902004539 83 0 0.0 5.0 0.00 0.02 0.02 83 1012.4
20260902003040 84 185 2.0 6.0 0.00 0.02 0.02 82 1012.5
20260902001550 84 0 0.0 0.0 0.00 0.02 0.02 80 1012.4
20260902000043 85 0 0.0 0.0 0.00 0.02 0.02 79 1012.3
20260901234536 86 0 0.0 2.0 0.00 0.02 0.02 78 1012.5
20260901233054 87 0 0.0 4.0 0.00 0.02 0.02 75 1012.5
20260901231535 88 96 0.0 3.0 0.00 0.02 0.02 74 1012.8
20260901230039 88 40 2.0 4.0 0.00 0.02 0.02 75 1012.8
20260901224605 89 0 0.0 2.0 0.00 0.02 0.02 73 1012.9
20260901223034 89 65 1.0 3.0 0.00 0.02 0.02 74 1012.9
20260901221537 89 46 1.0 4.0 0.00 0.02 0.02 72 1013.0
20260901220105 89 135 0.0 5.0 0.00 0.02 0.02 71 1012.9
20260901214536 90 138 3.0 7.0 0.00 0.02 0.02 69 1012.9
20260901213034 91 0 1.0 5.0 0.00 0.02 0.02 68 1012.9
20260901211540 92 70 2.0 5.0 0.00 0.02 0.02 66 1013.1
20260901210044 93 315 2.0 8.0 0.00 0.02 0.02 62 1013.2
20260901204535 93 319 3.0 6.0 0.00 0.02 0.02 65 1013.2
20260901203038 93 208 2.0 6.0 0.00 0.02 0.02 64 1013.2
20260901201540 93 318 2.0 8.0 0.00 0.02 0.02 63 1013.3
20260901200034 92 0 1.0 5.0 0.00 0.02 0.02 65 1013.4
20260901194540 92 296 2.0 8.0 0.00 0.02 0.02 66 1013.6
20260901193034 93 215 2.0 8.0 0.00 0.02 0.02 68 1013.7